Location: Czelad?
(50.3154°N, 19.0782°E)
Time: 14:29:09
(UTC+00:00)

Daily predictions for brighter satellites

Satellite Brightness Start Highest point End
(mag) Time Altitude Azimuth Time Altitude Azimuth Time Altitude Azimuth
STARLINK-1138 4.2 17:40:08 10° SSW 17:43:55 38° SE 17:47:43 10° ENE
STARLINK-1112 3.8 17:41:58 10° WNW 17:46:07 70° NNE 17:50:16 10° E
NOSS 0 Rocket 4.1 17:41:06 10° SSW 17:47:19 82° WNW 17:53:34 10° NNE
STARLINK-1110 4.1 17:43:40 10° WNW 17:47:40 56° SSW 17:51:38 10° SE
Cosmos 1331 Rocket 4.1 17:43:09 10° NNW 17:48:21 86° WSW 17:53:30 10° SSE
CZ-2C R/B 3.1 17:43:43 10° SE 17:48:35 53° ENE 17:53:17 10° N
STARLINK-1234 2.8 17:45:47 10° SW 17:48:43 63° SSE 17:51:39 10° ENE
STARLINK-1143 4.1 17:44:57 10° SW 17:48:47 40° SE 17:52:38 10° ENE
STARLINK-1124 4.1 17:44:44 10° WNW 17:48:48 56° SSW 17:52:52 10° SE
USA 81 4.1 17:45:45 10° N 17:51:05 85° E 17:56:21 10° S
STARLINK-1128 3.7 17:46:58 10° WNW 17:51:06 72° NNE 17:55:15 10° E
Okean 1 Rocket 4.4 17:47:55 10° SSW 17:52:07 45° WNW 17:56:19 10° N
USA 186 2.2 17:49:07 10° SSE 17:52:26 49° ENE 17:55:42 10° N
Cosmos 1745 Rocket 4.2 17:46:19 10° N 17:52:41 84° W 17:58:56 10° S
Cosmos 1544 Rocket 3.9 17:48:46 10° SSE 17:52:56 45° E 17:57:10 10° NNE
MOS 1 4.3 17:50:05 10° SSE 17:55:40 65° ENE 18:01:17 10° N
SPOT 3 Rocket 4.1 17:51:01 10° SE 17:55:50 40° ENE 18:00:41 10° N
STARLINK-1113 3.7 17:51:56 10° WNW 17:56:05 74° NNE 18:00:08 11° ESE
Cosmos 2369 Rocket 3.1 17:51:04 10° NNW 17:56:17 35° NE 18:01:25 10° ESE
Cosmos 1470 3.6 17:53:26 10° SSE 17:56:48 29° E 18:00:12 10° NNE
STARLINK-1122 4.2 17:53:06 10° WNW 17:57:03 50° SSW 18:00:59 10° SE
STARLINK-1241 3.9 17:53:21 10° SW 17:57:13 45° SSE 18:01:06 10° ENE
CZ-4 R/B 4.0 17:56:41 10° SSW 17:59:48 23° W 18:02:55 10° NW
COSMOS 2428 4.3 17:54:40 10° WSW 18:00:02 40° NW 18:05:25 10° NNE
STARLINK-1119 3.7 17:56:55 10° WNW 18:01:05 77° NNE 18:04:55 12° ESE
STARLINK-1126 4.3 17:58:02 10° WNW 18:01:58 47° SSW 18:05:52 10° SE
STARLINK-1239 3.9 17:58:09 10° SW 18:02:03 48° SSE 18:05:58 10° ENE
BREEZE-M DEB (TANK) 3.6 17:58:41 10° SW 18:04:04 26° SSE 18:06:12 13° ESE
Ariane Rocket 3.1 18:00:16 10° SSE 18:05:21 85° WSW 18:10:28 10° NNW
STARLINK-1114 3.6 18:01:56 10° WNW 18:06:06 80° NNE 18:09:44 13° ESE
STARLINK-1082 4.4 18:02:35 10° WNW 18:06:28 44° SSW 18:10:21 10° SE
STARLINK-1240 3.8 18:02:50 10° SW 18:06:46 51° SSE 18:10:42 10° ENE
SJ-6B 3.0 18:02:46 10° SSE 18:06:47 59° ENE 18:10:52 10° N
Cosmos 1733 3.1 18:04:12 10° S 18:07:59 89° E 18:11:47 10° N
Cosmos 1726 3.9 18:08:31 13° ESE 18:09:35 14° E 18:11:40 10° NE
Cosmos 1674 4.5 18:06:12 10° NNW 18:09:39 35° W 18:13:04 10° SSW
Cosmos 1758 3.9 18:06:32 10° SSE 18:10:20 38° E 18:14:09 10° NNE
Meteor 1-22 Rocket 4.0 18:05:05 10° S 18:10:23 83° E 18:15:43 10° NNE
ARGOS Delta rocket 4.2 18:05:27 10° S 18:10:36 81° WSW 18:16:02 10° NNW
CZ-2C R/B 4.4 18:06:15 10° NNE 18:10:36 34° E 18:14:53 10° SSE
STARLINK-1130 (DARKSAT) 3.6 18:06:54 10° WNW 18:11:04 83° NNE 18:14:30 15° ESE
IRS-1A Rocket 4.5 18:05:43 10° SSE 18:11:23 82° WSW 18:17:13 10° NNW
STARLINK-1216 3.7 18:07:31 10° SW 18:11:28 54° SSE 18:15:27 10° ENE
Aureole 2 Rocket 3.7 18:08:35 10° N 18:11:36 26° ENE 18:13:44 15° ESE
ATLAS CENTAUR R/B 4.1 18:09:58 10° WNW 18:12:34 15° NNW 18:15:04 10° NNE
NOSS 2-1 (E) 4.3 18:10:41 10° WSW 18:14:00 44° NW 18:17:52 10° NE
Cosmos 2219 Rocket 4.2 18:09:08 10° WSW 18:14:08 31° NW 18:19:08 10° NNE
STARLINK-1084 3.6 18:11:52 10° WNW 18:16:01 86° NNE 18:19:17 16° ESE
STARLINK-1237 3.6 18:12:15 10° SW 18:16:14 58° SSE 18:20:12 10° ENE
Cosmos 1943 Rocket 2.4 18:12:46 10° NNW 18:18:13 56° NE 18:23:01 13° SE
Meteor 1-21 Rocket 4.5 18:12:50 10° N 18:18:15 47° ENE 18:23:34 10° SE
STARLINK-1209 2.7 18:16:02 10° WSW 18:18:59 82° NNW 18:21:29 13° ENE
ATLAS 2AS CENTAUR R/B 3.7 18:13:28 10° NW 18:20:47 40° NNE 18:26:55 13° E
SL-14 R/B 3.6 18:16:49 10° NNW 18:20:53 74° W 18:24:53 10° S
STARLINK-1202 3.6 18:16:57 10° SW 18:20:58 61° SSE 18:24:45 11° ENE
STARLINK-1098 3.6 18:16:51 10° WNW 18:21:01 89° N 18:24:04 18° ESE
STARLINK-1228 2.7 18:18:15 10° WSW 18:21:08 80° NNW 18:23:29 14° ENE
STARLINK-1123 3.6 18:21:50 10° WNW 18:26:00 87° SSW 18:28:51 20° ESE
SL-8 R/B 3.7 18:21:21 10° W 18:26:06 72° S 18:29:36 18° ESE
ERBS 3.6 18:24:38 10° W 18:27:50 38° NNW 18:31:02 10° NE
STARLINK-1246 3.5 18:23:57 10° SW 18:28:01 67° SSE 18:31:36 13° ENE
Cosmos 2315 Rocket 4.0 18:23:04 10° S 18:29:21 76° E 18:35:44 10° NNE
USA 234 3.5 18:23:38 10° ENE 18:29:54 46° SE 18:36:08 10° SSW
ADEOS Rocket 4.4 18:23:21 10° N 18:29:56 47° WNW 18:35:50 10° SW
STARLINK-1097 3.6 18:26:48 10° WNW 18:30:57 84° SSW 18:33:37 21° ESE
Resurs 1-3 3.7 18:28:09 12° SSE 18:32:04 57° ENE 18:36:23 10° N
STARLINK-67 2.9 18:30:46 10° W 18:33:18 56° NNW 18:34:49 21° ENE
Cosmos 1626 2.9 18:29:44 10° NNW 18:33:22 53° W 18:36:58 10° S
STARLINK-1201 2.9 18:30:30 10° WSW 18:33:46 86° NNW 18:36:07 18° ENE
Meteor 2-15 Rocket 4.4 18:29:15 10° S 18:35:12 61° E 18:41:11 10° NNE
STARLINK-1224 3.5 18:31:10 10° WSW 18:35:14 72° SSE 18:38:30 15° ENE
H-2A R/B 2.7 18:30:21 10° S 18:35:34 59° W 18:40:42 10° NNW
STARLINK-1099 3.6 18:31:48 10° WNW 18:35:57 80° SSW 18:38:25 24° ESE
Aureole 3 3.9 18:32:49 10° SSE 18:36:49 51° E 18:41:56 10° NNE
STARLINK-1203 3.4 18:32:52 10° WSW 18:36:51 77° SSE 18:39:58 16° ENE
DMSP B5D2-2 4.3 18:32:35 10° NNE 18:37:35 45° E 18:42:34 10° S
SL-16 R/B 2.1 18:33:16 10° SSW 18:38:56 84° ESE 18:44:38 10° NNE
STARLINK-1225 3.5 18:35:48 10° WSW 18:39:51 76° SSE 18:42:58 17° ENE
SL-08 RB Rocket 3.8 18:35:37 10° S 18:40:08 80° WSW 18:44:45 10° NNW
STARLINK-1104 3.6 18:36:47 10° WNW 18:40:55 76° SSW 18:43:12 26° ESE
Resurs 01 Rocket 1.8 18:38:54 19° SE 18:41:49 51° ENE 18:46:07 10° N
STARLINK-1230 3.5 18:40:32 10° WSW 18:44:36 80° SSE 18:47:32 18° ENE
STARLINK-1144 3.7 18:41:46 10° WNW 18:45:55 72° SSW 18:47:59 28° SE
Meteor 2-15 4.4 18:40:07 10° S 18:46:10 87° E 18:52:16 10° N
Cosmos 2228 4.0 18:45:53 25° ESE 18:46:28 26° E 18:50:03 10° NNE
STARLINK-1233 3.0 18:44:04 10° WSW 18:47:12 73° NNW 18:48:52 25° ENE
STARLINK-1212 3.0 18:44:32 10° WSW 18:47:40 72° NNW 18:49:17 26° ENE
STARLINK-1105 3.0 18:44:58 10° WSW 18:48:06 72° NNW 18:49:43 26° ENE
NOSS 2-2 (C) 4.5 18:42:58 10° NW 18:48:28 89° NE 18:53:48 20° SE
STARLINK-1206 3.0 18:45:28 10° WSW 18:48:35 72° NNW 18:50:09 26° ENE
STARLINK-1247 3.0 18:45:54 10° WSW 18:49:01 71° NNW 18:50:34 27° ENE
STARLINK-1243 3.5 18:45:21 10° WSW 18:49:25 83° SSE 18:52:10 20° ENE
STARLINK-1227 3.0 18:46:19 10° WSW 18:49:27 71° NNW 18:51:01 27° ENE
Cosmos 1992 Rocket 4.0 18:44:20 10° NNW 18:49:33 72° ENE 18:52:56 22° SE
STARLINK-1218 3.0 18:46:49 10° WSW 18:49:56 71° NNW 18:51:26 27° ENE
Abrixas rocket 3.9 18:47:51 10° SSW 18:49:06 17° S 18:49:06 17° S
STARLINK-1226 3.0 18:47:15 10° W 18:50:23 70° NNW 18:51:53 27° ENE
STARLINK-1254 3.1 18:47:41 10° W 18:50:49 70° NNW 18:52:19 28° ENE
STARLINK-1103 3.7 18:46:44 10° WNW 18:50:52 68° SSW 18:52:45 30° SE
STARLINK-1215 3.0 18:48:11 10° W 18:51:17 70° NNW 18:52:45 28° ENE
Cosmos 1953 2.3 18:47:33 10° S 18:51:21 56° E 18:55:16 10° NNE
STARLINK-1231 3.0 18:48:36 10° W 18:51:43 70° NNW 18:53:09 29° ENE
STARLINK-1232 3.1 18:49:31 10° W 18:52:38 69° NNW 18:54:02 29° ENE
STARLINK-1217 3.1 18:49:58 10° W 18:53:05 69° NNW 18:54:29 29° ENE
STARLINK-1208 3.1 18:50:23 10° W 18:53:31 69° NNW 18:54:55 29° ENE
STARLINK-1229 3.1 18:50:52 10° W 18:53:59 68° NNW 18:55:20 30° ENE
STARLINK-1236 3.5 18:50:07 10° WSW 18:54:12 87° SSE 18:56:46 22° ENE
STARLINK-1271 3.1 18:51:19 10° W 18:54:26 68° NNW 18:55:47 30° ENE
STARLINK-1270 3.1 18:51:47 10° W 18:54:54 68° NNW 18:56:13 31° ENE
STARLINK-1154 3.1 18:52:14 10° W 18:55:21 67° NNW 18:56:39 31° ENE
STARLINK-1101 3.8 18:51:43 10° WNW 18:55:50 64° SSW 18:57:32 33° SE
STARLINK-1197 3.1 18:53:09 10° W 18:56:15 67° NNW 18:57:31 32° ENE
SL-24 R/B 4.0 18:51:35 10° NNE 18:56:20 81° ESE 19:00:25 10° S
STARLINK-1189 3.1 18:53:36 10° W 18:56:42 66° NNW 18:57:56 32° ENE
STARLINK-1187 3.2 18:54:27 10° W 18:57:34 63° NNW 18:58:50 32° ENE
STARLINK-1188 3.1 18:54:30 10° W 18:57:37 66° NNW 18:58:49 33° ENE
STARLINK-1198 3.1 18:54:31 10° W 18:57:37 66° NNW 18:58:49 33° ENE
STARLINK-1235 3.3 18:55:10 10° W 18:58:17 60° NNW 18:59:32 31° NE
CZ-4C R/B 4.3 18:54:01 10° WNW 18:58:59 26° N 19:04:43 10° NE
STARLINK-1199 3.2 18:56:26 10° W 18:59:34 65° NNW 19:00:44 34° ENE
STARLINK-1191 3.2 18:56:54 10° W 19:00:00 65° NNW 19:01:10 34° ENE
STARLINK-1210 3.2 18:57:21 10° W 19:00:28 65° NNW 19:01:36 35° NE
STARLINK-1102 3.8 18:56:42 10° WNW 19:00:48 61° SSW 19:02:19 35° SE
Cosmos 1603 4.0 18:55:39 10° S 19:00:51 40° ESE 19:06:04 10° NE
STARLINK-1221 3.2 18:57:48 10° W 19:00:55 64° NNW 19:02:02 35° NE
STARLINK-1219 3.2 18:58:15 10° W 19:01:23 64° NNW 19:02:29 35° NE
MetOp-B 4.3 18:58:49 27° SE 19:01:36 54° ENE 19:06:50 10° N
STARLINK-1222 3.2 18:58:42 10° W 19:01:50 64° NNW 19:02:54 36° NE
ISS -3.7 18:58:41 10° WNW 19:02:02 65° SSW 19:02:41 50° SE
STARLINK-1211 3.2 18:59:09 10° W 19:02:17 64° NNW 19:03:20 36° NE
Meteor 1-16 Rocket 4.3 18:58:28 16° SSE 19:02:35 50° E 19:07:52 10° NNE
STARLINK-1214 3.2 18:59:37 10° W 19:02:44 63° NNW 19:03:46 37° NE
Cosmos 2074 Rocket 3.9 18:56:51 10° N 19:03:10 79° E 19:08:16 16° SSE
STARLINK-1245 3.2 19:00:05 10° W 19:03:11 63° NNW 19:04:10 38° NE
Cosmos 2251 Rocket 3.6 18:58:02 10° S 19:03:16 56° ESE 19:08:32 10° NNE
STARLINK-1238 3.2 19:00:28 10° W 19:03:36 63° NNW 19:04:36 37° NE
STARLINK-1269 3.5 18:59:57 10° WSW 19:04:02 86° NNW 19:06:12 27° ENE
BREEZE-M DEB (TANK) 3.4 18:58:03 10° W 19:04:26 69° SSW 19:05:19 45° SE
STARLINK-1205 3.2 19:01:24 10° W 19:04:30 62° NNW 19:05:26 39° NE
Cosmos 2058 Rocket 4.4 19:05:24 23° ENE 19:05:24 23° ENE 19:08:21 10° NE
Cosmos 2084 Rocket 3.7 19:00:29 10° NW 19:04:55 67° SW 19:06:58 31° SSE
STARLINK-1204 3.2 19:01:53 10° W 19:04:59 62° NNW 19:05:54 39° NE
SPOT 5 4.1 19:05:12 21° ENE 19:05:38 21° ENE 19:08:54 10° NNE
STARLINK-1111 3.9 19:01:42 10° WNW 19:05:46 57° SSW 19:07:06 37° SSE
Cosmos 1703 3.5 19:03:54 10° N 19:07:46 50° ENE 19:08:26 44° ESE
CZ-2C R/B 2.5 19:02:44 10° NNE 19:07:56 67° ESE 19:13:04 10° S
STARLINK-1200 3.5 19:04:46 10° WSW 19:08:51 83° NNW 19:10:50 29° ENE
Cosmos 2237 Rocket 4.1 19:04:00 10° WSW 19:08:58 31° NW 19:13:58 10° NNE
ERS-1 Rocket 3.9 19:08:38 27° E 19:09:48 30° ENE 19:14:10 10° N
STARLINK-1073 4.0 19:06:41 10° WNW 19:10:44 54° SSW 19:11:53 39° SSE
Landsat 7 4.4 19:10:47 34° ESE 19:11:57 41° ENE 19:16:26 10° N
IGS 5A 4.1 19:12:34 35° E 19:12:58 36° ENE 19:16:48 10° N
STARLINK-1192 3.6 19:09:32 10° WSW 19:13:37 80° NNW 19:15:24 32° ENE
STARLINK-1121 4.1 19:11:39 10° WNW 19:15:41 50° SSW 19:16:39 40° SSE
Cosmos 292 Rocket 4.0 19:11:07 10° NNW 19:15:52 65° WSW 19:18:32 26° S
Cosmos 1610 Rocket 4.4 19:11:14 10° N 19:17:28 68° ENE 19:20:41 30° SSE
STARLINK-1244 3.6 19:14:27 10° WSW 19:18:33 77° NNW 19:20:08 36° ENE
Cosmos 1656 Rocket 3.8 19:12:56 10° NNW 19:18:36 61° ENE 19:20:40 37° ESE
Meteor 1-11 4.4 19:14:16 10° N 19:20:00 59° ENE 19:22:10 37° SE
STARLINK-1106 4.1 19:16:38 10° WNW 19:20:37 47° SSW 19:21:25 41° S
MOS 1 Rocket 3.5 19:17:03 10° NNE 19:22:17 90° WNW 19:27:41 10° SSW
STARLINK-1138 3.7 19:19:03 10° WSW 19:23:09 75° NNW 19:24:34 39° ENE
STARLINK-1234 3.5 19:21:11 10° W 19:24:03 49° N 19:24:03 49° N
STARLINK-1112 4.2 19:21:39 10° WNW 19:25:37 44° SSW 19:26:14 41° S
STARLINK-1143 3.7 19:23:58 10° W 19:28:03 73° NNW 19:29:16 43° ENE
COSMOS 2455 3.8 19:24:15 10° NNW 19:29:49 36° NE 19:32:01 28° ENE
CARTOSAT-1 4.4 19:30:23 33° ENE 19:30:23 33° ENE 19:34:09 10° N
STARLINK-1128 4.3 19:26:39 10° WNW 19:30:34 41° SW 19:31:01 40° SSW
Cosmos 1437 3.2 19:28:34 10° NNW 19:31:24 52° W 19:31:24 52° W
Cosmos 1726 Rocket 3.4 19:33:41 62° SE 19:34:03 66° E 19:38:27 10° NNE
STARLINK-1113 4.4 19:31:39 10° WNW 19:35:31 39° SW 19:35:47 38° SSW
Cosmos 2341 Rocket 4.2 19:29:49 10° N 19:36:03 54° ENE 19:37:48 42° ESE
Cosmos 1825 Rocket 3.9 19:31:49 10° NNW 19:36:12 62° W 19:37:53 35° SSW
STARLINK-1241 3.7 19:32:20 10° W 19:36:23 69° NNW 19:37:13 52° NE
NOSS 3-4 (A) 3.9 19:32:59 10° NW 19:39:48 68° NE 19:42:42 39° ESE
NOSS 3-4 (C) 3.9 19:33:05 10° NW 19:39:53 67° NE 19:42:48 39° ESE
Cosmos 2369 Rocket 2.8 19:35:01 10° NW 19:40:34 53° WSW 19:43:14 29° S
STARLINK-1239 3.8 19:37:16 10° W 19:41:20 67° NNW 19:41:56 56° NE
Cosmos 1461 4.0 19:39:58 10° NNW 19:44:06 35° NE 19:44:33 34° NE
Cosmos 1726 2.9 19:42:56 32° SW 19:44:22 51° WNW 19:48:03 10° N
Aureole 2 Rocket 4.1 19:42:20 10° NW 19:45:23 28° WSW 19:45:56 27° WSW
STARLINK-1240 3.8 19:42:01 10° W 19:46:04 65° N 19:46:29 60° NNE
Cosmos 2263 4.4 19:41:06 10° NW 19:46:40 63° WSW 19:48:36 40° S
SAR-Lupe-2 3.8 19:44:09 10° N 19:47:28 66° NW 19:47:28 66° NW
Cosmos 1908 3.5 19:48:57 61° NNE 19:48:57 61° NNE 19:52:13 10° N
NOSS 3-3 (A) 3.8 19:44:36 10° SSW 19:50:29 75° SE 19:57:12 10° NE
NOSS 3-3 (C) 3.8 19:44:42 10° SSW 19:50:35 74° SE 19:57:18 10° NE
STARLINK-1216 3.8 19:46:47 10° W 19:50:49 64° N 19:51:02 62° N
Meteor 2-17 Rocket 4.5 19:44:58 10° NNW 19:51:07 78° W 19:53:46 37° S
Cosmos 1953 Rocket 3.9 19:48:05 10° NNW 19:52:30 62° W 19:53:22 50° SW
ATLAS CENTAUR R/B 4.1 19:51:50 10° NNW 19:53:09 11° N 19:54:28 10° NNE
Terra 2.5 19:53:53 41° ENE 19:53:53 41° ENE 19:58:05 10° N
Cosmos 1295 Rocket 4.4 19:47:29 10° N 19:53:47 89° E 19:55:56 45° S
STARLINK-1237 3.9 19:51:34 10° W 19:55:36 62° N 19:55:38 62° N
Spot 2 Rocket 3.8 19:55:41 44° SSW 19:57:11 64° WSW 20:02:17 10° NNW
STARLINK-1202 4.0 19:56:19 10° W 20:00:11 61° NNW 20:00:11 61° NNW
Cosmos 1606 Rocket 4.1 19:59:07 37° SW 20:00:36 57° WNW 20:05:01 10° N
SPOT 1/Viking Rocket 3.5 20:00:50 66° S 20:01:36 87° WSW 20:06:53 10° NNW
Cosmos 1943 Rocket 3.7 19:57:00 10° NW 20:01:40 28° WSW 20:04:34 18° SSW
Cosmos 2218 Rocket 4.1 19:57:13 10° N 20:03:15 52° ENE 20:03:48 51° E
ERBS 4.3 20:01:53 10° WNW 20:04:36 25° N 20:04:36 25° N
Cosmos 1943 3.1 20:01:03 17° SSW 20:05:27 89° WNW 20:11:11 10° NNE
STARLINK-1246 4.2 20:03:32 10° W 20:07:11 56° NW 20:07:11 56° NW
ATLAS 2AS CENTAUR R/B 2.8 20:04:52 10° NW 20:12:37 86° SW 20:14:21 56° SSE
USA 234 3.3 20:06:39 10° ENE 20:13:12 76° NNW 20:19:44 10° WSW
Cosmos 1340 Rocket 4.0 20:15:29 37° N 20:15:29 37° N 20:18:01 10° NNE
STARLINK-1224 4.4 20:10:42 10° W 20:13:57 49° NW 20:13:57 49° NW
Cosmos 2181 Rocket 4.0 20:15:29 60° E 20:15:35 60° E 20:21:42 10° NNE
APEX 4.3 20:09:06 10° NNW 20:16:08 89° WSW 20:17:02 68° SSE
Resurs 01 Rocket 3.8 20:16:28 15° SW 20:18:36 20° W 20:21:55 10° NW
Cosmos 921 Rocket 3.8 20:18:17 10° NNW 20:21:21 47° NNW 20:21:21 47° NNW
SL-16 R/B 4.4 20:19:11 10° W 20:23:46 24° NW 20:28:22 10° NNE
Cosmos 2228 4.4 20:22:39 29° WSW 20:23:53 35° WNW 20:27:53 10° N
Cosmos 407 Rocket 4.1 20:26:39 47° NE 20:26:39 47° NE 20:30:19 10° NNE
Cosmos 2058 4.4 20:23:03 10° N 20:25:19 30° NNE 20:25:19 30° NNE
Cosmos 1697 Rocket 4.4 20:23:05 10° NNW 20:27:26 22° NE 20:28:29 21° NE
Iridium 4 Rocket 4.0 20:25:51 10° N 20:28:55 42° N 20:28:55 42° N
SL-8 Rocket 3.9 20:30:06 10° N 20:36:26 82° W 20:37:01 73° SSW
Mayak 1.2 20:38:08 10° NNE 20:38:57 15° NNE 20:38:57 15° NNE
Cosmos 2058 Rocket 4.2 20:42:37 42° WNW 20:42:37 42° WNW 20:46:49 10° N
Cosmos 864 Rocket 4.3 20:36:31 10° N 20:42:49 88° E 20:42:54 87° ESE
SPOT 5 3.6 20:44:26 44° NW 20:44:26 44° NW 20:47:44 10° NNW
Cosmos 2366 rocket 3.8 20:38:04 10° N 20:44:15 88° W 20:44:18 88° SW
Cosmos 614 Rocket 4.3 20:44:49 65° NW 20:44:49 65° NW 20:49:42 10° NNE
ERS-1 Rocket 3.8 20:48:38 45° W 20:48:38 45° W 20:53:17 10° NNW
CZ-4C R/B 4.1 20:43:42 10° NW 20:49:29 32° NNE 20:53:35 20° ENE
Cosmos 1980 Rocket 4.0 20:48:40 10° N 20:52:44 20° NE 20:53:42 19° NE
COSMOS 2455 3.3 21:10:10 10° NW 21:15:09 55° WNW 21:15:09 55° WNW
Cosmos 1821 Rocket 4.2 21:22:01 10° N 21:27:28 67° N 21:27:28 67° N
Cosmos 1656 4.4 21:24:26 10° NNW 21:28:47 51° N 21:28:47 51° N
Terra 3.7 21:32:45 25° WNW 21:32:45 25° WNW 21:35:38 10° NW
ATLAS CENTAUR R/B 4.0 21:30:26 10° NNW 21:31:51 16° N 21:31:51 16° N
ATLAS 5 CENTAUR R/B 4.4 21:38:35 12° NE 21:38:35 12° NE 21:38:54 10° NE
Cosmos 1934 Rocket 4.4 21:41:45 10° N 21:46:48 57° NNE 21:46:48 57° NNE
USA 234 3.9 21:49:35 10° ENE 21:55:52 51° N 22:02:09 10° WNW
ATLAS 2AS CENTAUR R/B 4.3 21:56:59 10° WNW 22:01:48 23° W 22:01:48 23° W
Cosmos 2344 4.4 21:56:38 10° NW 22:05:40 70° NE 22:09:43 45° ESE
Cosmos 1697 Rocket 3.8 22:06:34 10° NNW 22:10:12 41° NNW 22:10:12 41° NNW
SL-16 R/B 4.0 22:10:21 10° NNW 22:14:57 24° NE 22:15:22 24° NE
Mayak 1.5 22:14:08 10° N 22:15:32 17° NNW 22:15:32 17° NNW
Cosmos 2322 Rocket 3.9 22:24:37 10° NNW 22:29:18 25° NE 22:29:38 25° NE
Cosmos 1980 Rocket 3.4 22:32:06 10° NNW 22:35:28 37° NNW 22:35:28 37° NNW
CZ-4C R/B 3.0 22:32:16 10° NW 22:38:44 68° NNE 22:38:44 68° NNE
COSMOS 2406 4.4 22:56:09 40° N 22:56:09 40° N 22:59:57 10° NNE
Cosmos 2082 Rocket 3.6 23:00:51 32° NE 23:00:51 32° NE 23:03:52 10° NNE
ATLAS 5 CENTAUR R/B 3.8 23:20:05 25° N 23:20:05 25° N 23:23:41 10° NE
Cosmos 1833 Rocket 3.8 23:28:31 41° N 23:28:31 41° N 23:32:26 10° NNE
CZ-2D R/B 3.9 23:29:28 10° NE 23:32:53 25° ENE 23:32:53 25° ENE
Resurs 1-4 Rocket 3.9 23:30:58 10° NE 23:34:06 24° ENE 23:34:06 24° ENE
USA 234 3.7 23:32:00 10° E 23:38:22 58° NNE 23:44:46 10° WNW
SL-16 R/B 2.9 23:52:44 62° NE 23:52:44 62° NE 23:58:28 10° NNW
